Change the Weather History Date:

Friday, August 2, 2013

  Actual Average Record
Temperature  
Mean Temperature 62 °F 65 °F  
Max Temperature 73 °F 77 °F 93 °F (1988)
Min Temperature 50 °F 53 °F 41 °F (1985)
Degree Days  
Heating Degree Days 3 0  
Month to date heating degree days 3 0  
Since 1 June heating degree days 159 209  
Since 1 July heating degree days 55 64  
Cooling Degree Days 0 2  
Month to date cooling degree days 0 4  
Year to date cooling degree days 241 128  
Since 1 June cooling degree days 198 118  
Growing Degree Days 11 (Base 50)    
Moisture  
Dew Point 53 °F    
Average Humidity 72    
Maximum Humidity 96    
Minimum Humidity 47    
Precipitation  
Precipitation 0.01 in 0.14 in 1.03 in (1980)
Month to date precipitation 0.04 0.28  
Year to date precipitation 18.30 26.12  
Sea Level Pressure  
Sea Level Pressure 29.94 in    
Wind  
Wind Speed 5 mph (WSW)    
Max Wind Speed 14 mph    
Max Gust Speed 20 mph    
Visibility 7 miles    
Events Fog , Rain    
T = Trace of Precipitation, MM = Missing Value Source: NWS Daily Summary

Daily Weather History Graph

Daily Weather History Graph

Search for Another Location

Airport or City:

Trip Planner

Search our weather history database for the weather conditions in past years. The results will help you decide how hot, cold, wet, or windy it might be!

Date:

Astronomy

Aug. 02, 2013 Rise Set
Actual Time 6:09 AM EDT 8:31 PM EDT
Civil Twilight 5:38 AM EDT 9:02 PM EDT
Nautical Twilight 4:59 AM EDT 9:40 PM EDT
Astronomical Twilight 4:16 AM EDT 10:23 PM EDT
Moon 2:28 AM EDT (8/2) 5:28 PM EDT (8/2)
Length of Visible Light 15h 23m
Length of Day
14h 21m
Waning Crescent, 16% of the Moon is Illuminated
Aug 2
Waning Crescent
Aug 6
New
Aug 14
First Quarter
Aug 20
Full
Aug 28
Last Quarter

Hourly Weather History & Observations

Time (EDT) Temp. Dew Point Humidity Pressure Visibility Wind Dir Wind Speed Gust Speed Precip Events Conditions
12:53 AM 54.0 °F 51.1 °F 90% 29.93 in 10.0 mi Calm Calm - N/A   Clear
1:18 AM 51.1 °F 48.9 °F 92% 29.95 in 1.2 mi Calm Calm - N/A   Clear
1:53 AM 52.0 °F 50.0 °F 93% 29.92 in 10.0 mi Calm Calm - N/A   Clear
2:25 AM 50.0 °F 48.0 °F 93% 29.94 in 1.8 mi Calm Calm - N/A   Clear
2:35 AM 50.0 °F 48.0 °F 93% 29.94 in 1.5 mi Calm Calm - N/A   Scattered Clouds
2:38 AM 50.0 °F 46.9 °F 89% 29.94 in 4.0 mi Calm Calm - N/A   Scattered Clouds
2:51 AM 51.8 °F 48.2 °F 88% 29.94 in 10.0 mi Calm Calm - N/A   Mostly Cloudy
2:53 AM 51.1 °F 48.0 °F 89% 29.91 in 10.0 mi Calm Calm - N/A   Mostly Cloudy
3:29 AM 53.1 °F 50.0 °F 89% 29.94 in 10.0 mi Calm Calm - N/A   Overcast
3:53 AM 52.0 °F 48.9 °F 89% 29.91 in 9.0 mi Calm Calm - N/A   Mostly Cloudy
4:53 AM 57.0 °F 54.0 °F 89% 29.91 in 7.0 mi Calm Calm - N/A   Overcast
5:30 AM 57.9 °F 55.0 °F 90% 29.94 in 6.0 mi Calm Calm - N/A   Overcast
5:53 AM 59.0 °F 55.9 °F 90% 29.91 in 6.0 mi Calm Calm - N/A   Overcast
6:46 AM 59.0 °F 55.9 °F 90% 29.96 in 1.8 mi West 4.6 mph - N/A   Overcast
6:53 AM 59.0 °F 57.0 °F 93% 29.93 in 0.8 mi Variable 3.5 mph - N/A   Overcast
7:07 AM 59.0 °F 57.0 °F 93% 29.97 in 0.5 mi Variable 4.6 mph - N/A Fog Fog
7:19 AM 59.0 °F 57.0 °F 93% 29.97 in 1.5 mi Variable 3.5 mph - N/A   Overcast
7:24 AM 59.0 °F 57.0 °F 93% 29.97 in 3.0 mi Calm Calm - N/A   Overcast
7:34 AM 60.1 °F 57.0 °F 90% 29.98 in 4.0 mi Calm Calm - N/A   Overcast
7:42 AM 60.1 °F 57.0 °F 90% 29.98 in 4.0 mi Calm Calm - N/A   Overcast
7:53 AM 60.1 °F 57.0 °F 90% 29.95 in 5.0 mi Variable 3.5 mph - N/A   Overcast
8:14 AM 62.1 °F 57.0 °F 84% 29.98 in 6.0 mi Variable 3.5 mph - N/A   Haze
8:39 AM 62.1 °F 57.0 °F 84% 29.98 in 7.0 mi Variable 6.9 mph - N/A   Overcast
8:53 AM 63.0 °F 57.9 °F 84% 29.95 in 7.0 mi Variable 5.8 mph - N/A   Mostly Cloudy
9:07 AM 64.0 °F 57.0 °F 78% 29.98 in 8.0 mi SW 8.1 mph - N/A   Scattered Clouds
9:53 AM 66.0 °F 57.0 °F 73% 29.93 in 10.0 mi Variable 5.8 mph - N/A   Scattered Clouds
10:53 AM 66.9 °F 55.9 °F 68% 29.94 in 10.0 mi West 8.1 mph - N/A   Mostly Cloudy
11:07 AM 69.1 °F 57.0 °F 65% 29.96 in 10.0 mi West 8.1 mph - N/A   Mostly Cloudy
11:53 AM 71.1 °F 54.0 °F 55% 29.94 in 10.0 mi WSW 10.4 mph 16.1 mph N/A   Partly Cloudy
12:53 PM 72.0 °F 53.1 °F 51% 29.93 in 10.0 mi West 8.1 mph - N/A   Partly Cloudy
1:53 PM 72.0 °F 50.0 °F 46% 29.94 in 10.0 mi West 10.4 mph - N/A   Mostly Cloudy
3:53 PM 71.1 °F 51.1 °F 49% 29.94 in 10.0 mi SW 13.8 mph 19.6 mph N/A   Mostly Cloudy
5:53 PM 70.0 °F 52.0 °F 53% 29.93 in 10.0 mi WSW 8.1 mph - N/A   Scattered Clouds
7:53 PM 66.9 °F 52.0 °F 59% 29.94 in 10.0 mi SW 5.8 mph - N/A   Overcast
8:53 PM 66.0 °F 52.0 °F 60% 29.92 in 10.0 mi SW 5.8 mph - N/A   Overcast
9:53 PM 64.0 °F 52.0 °F 65% 29.92 in 10.0 mi SSW 3.5 mph - N/A   Overcast
10:53 PM 64.0 °F 52.0 °F 65% 29.92 in 10.0 mi South 4.6 mph - N/A   Overcast
11:46 PM 64.0 °F 53.1 °F 67% 29.95 in 10.0 mi SW 3.5 mph - 0.00 in Rain Light Rain
11:53 PM 64.0 °F 53.1 °F 67% 29.91 in 10.0 mi Variable 4.6 mph - 0.00 in   Overcast